Location: Santa Clara
(37.3540°N, 121.9540°W)
Time: 22:53:47
(UTC-07:00)

Envisat - Visible Passes

Search period start: 27 May 2023 00:00
Search period end: 06 June 2023 00:00
Orbit: 763 x 765 km, 98.2° (Epoch: 27 May)

Date Brightness Start Highest point End Pass type
(mag) Time Alt. Az. Time Alt. Az. Time Alt. Az.
27 May 3.2 04:54:52 10° NNE 04:59:57 77° ESE 05:05:01 10° S visible
28 May 4.6 04:18:11 10° NNE 04:22:43 32° E 04:27:13 10° SSE visible
29 May 5.6 03:42:47 10° ENE 03:45:17 14° E 03:47:47 10° ESE visible
30 May 3.6 04:42:31 10° NNE 04:47:32 58° E 04:52:30 10° S visible
31 May 5.0 04:06:07 10° NE 04:10:13 24° E 04:14:19 10° SSE visible
01 Jun 3.0 05:07:09 10° N 05:12:15 80° WNW 05:17:18 10° SSW visible
02 Jun 4.1 04:30:14 10° NNE 04:35:05 43° E 04:39:52 10° S visible
03 Jun 5.3 03:54:12 10° NE 03:57:42 19° E 04:01:12 10° SE visible
04 Jun 3.2 04:54:44 10° NNE 04:59:50 78° ESE 05:04:54 10° S visible
05 Jun 4.5 04:18:02 10° NNE 04:22:35 33° E 04:27:07 10° SSE visible
